Location: Kuffner-Sternwarte
(48.2130°N, 16.2960°E)
Time: 04:30:33
(UTC+02:00)

Envisat - Pass Details

Date: 26 September 2024
Orbit: 762 x 764 km, 98.3° (Epoch: 04 October)

Event Time Altitude Azimuth Distance (km) Brightness Sun altitude
Rises 02:31:36 0° 32° (NNE) 3,236 7.2 -37.9°
Reaches altitude 10° 02:35:36 10° 64° (ENE) 2,302 6.1 -37.5°
Maximum altitude 02:37:27 12° 86° (E) 2,171 5.7 -37.4°
Enters shadow 02:38:01 12° 93° (E) 2,182 5.6 -37.3°
